Weather History for KLFT - January, 2014

Change the Weather History Date:

Thursday, January 9, 2014

  Actual Average Record
Temperature  
Mean Temperature 55 °F 52 °F  
Max Temperature 68 °F 62 °F 81 °F (1957)
Min Temperature 41 °F 43 °F 21 °F (1962)
Degree Days  
Heating Degree Days 10 13  
Month to date heating degree days 201 117  
Since 1 July heating degree days 917 671  
Growing Degree Days 4 (Base 50)    
Moisture  
Dew Point 45 °F    
Average Humidity 74    
Maximum Humidity 89    
Minimum Humidity 58    
Precipitation  
Precipitation 0.00 in 0.19 in 3.25 in (2012)
Month to date precipitation 0.40 1.64  
Year to date precipitation 0.40 1.64  
Snow  
Snow 0.00 in 0.00 in T in (1962)
Month to date snowfall 0.0 0.0  
Since 1 July snowfall 0.0 0.0  
Snow Depth 0.00 in    
Sea Level Pressure  
Sea Level Pressure 30.23 in    
Wind  
Wind Speed 5 mph (SE)    
Max Wind Speed 14 mph    
Max Gust Speed 18 mph    
Visibility 10 miles    
Events      
T = Trace of Precipitation, MM = Missing Value Source: NWS Daily Summary

Daily Weather History Graph

Daily Weather History Graph

Search for Another Location

Airport or City:

Trip Planner

Search our weather history database for the weather conditions in past years. The results will help you decide how hot, cold, wet, or windy it might be!

Date:

Astronomy

Jan. 09, 2014 Rise Set
Actual Time 7:05 AM CST 5:25 PM CST
Civil Twilight 6:39 AM CST 5:51 PM CST
Nautical Twilight 6:09 AM CST 6:20 PM CST
Astronomical Twilight 5:40 AM CST 6:49 PM CST
Moon 12:43 PM CST (1/9) 1:23 AM CST (1/9)
Length of Visible Light 11h 11m
Length of Day
10h 19m
Waxing Gibbous, 66% of the Moon is Illuminated
Jan 9
Waxing Gibbous
Jan 15
Full
Jan 23
Last Quarter
Jan 30
New
Feb 6
First Quarter

Hourly Weather History & Observations

Time (CST) Temp. Windchill Dew Point Humidity Pressure Visibility Wind Dir Wind Speed Gust Speed Precip Events Conditions
12:53 AM 41.0 °F - 35.1 °F 79% 30.31 in 10.0 mi Calm Calm - N/A   Partly Cloudy
1:53 AM 42.1 °F 40.2 °F 35.1 °F 76% 30.29 in 10.0 mi East 3.5 mph - N/A   Overcast
2:53 AM 42.1 °F 40.2 °F 34.0 °F 73% 30.29 in 10.0 mi East 3.5 mph - N/A   Overcast
3:53 AM 43.0 °F 40.3 °F 34.0 °F 71% 30.28 in 10.0 mi ENE 4.6 mph - N/A   Overcast
4:53 AM 44.1 °F 42.5 °F 35.1 °F 71% 30.27 in 10.0 mi Variable 3.5 mph - N/A   Overcast
5:53 AM 45.0 °F - 36.0 °F 71% 30.27 in 10.0 mi Calm Calm - N/A   Overcast
6:53 AM 45.0 °F 43.5 °F 37.0 °F 74% 30.27 in 10.0 mi Variable 3.5 mph - N/A   Overcast
7:53 AM 46.0 °F 44.8 °F 37.9 °F 73% 30.28 in 10.0 mi SE 3.5 mph - N/A   Overcast
8:53 AM 48.9 °F - 41.0 °F 74% 30.28 in 10.0 mi Variable 5.8 mph - N/A   Overcast
9:53 AM 55.9 °F - 45.0 °F 67% 30.28 in 10.0 mi SSE 6.9 mph - N/A   Clear
10:53 AM 61.0 °F - 48.0 °F 62% 30.27 in 10.0 mi Variable 5.8 mph - N/A   Clear
11:53 AM 64.0 °F - 51.1 °F 63% 30.24 in 10.0 mi South 10.4 mph 17.3 mph N/A   Clear
12:53 PM 66.0 °F - 51.1 °F 59% 30.20 in 10.0 mi South 8.1 mph - N/A   Clear
1:53 PM 66.9 °F - 53.1 °F 61% 30.18 in 10.0 mi South 9.2 mph 17.3 mph N/A   Mostly Cloudy
2:53 PM 66.0 °F - 53.1 °F 63% 30.18 in 10.0 mi South 9.2 mph - N/A   Mostly Cloudy
3:53 PM 66.9 °F - 53.1 °F 61% 30.18 in 10.0 mi SSE 10.4 mph 16.1 mph N/A   Clear
5:53 PM 63.0 °F - 53.1 °F 70% 30.18 in 10.0 mi SSE 3.5 mph - N/A   Clear
6:53 PM 60.1 °F - 52.0 °F 75% 30.18 in 10.0 mi SE 3.5 mph - N/A   Clear
7:53 PM 59.0 °F - 51.1 °F 75% 30.18 in 10.0 mi Variable 3.5 mph - N/A   Clear
8:53 PM 57.9 °F - 51.1 °F 78% 30.19 in 10.0 mi Variable 3.5 mph - N/A   Clear
9:53 PM 55.9 °F - 50.0 °F 80% 30.20 in 10.0 mi Variable 3.5 mph - N/A   Clear
10:53 PM 54.0 °F - 50.0 °F 86% 30.19 in 10.0 mi ESE 4.6 mph - N/A   Clear
11:53 PM 53.1 °F - 50.0 °F 89% 30.17 in 10.0 mi ESE 3.5 mph - N/A   Clear